Lima, OH

8:39 AM EDT on April 23, 2017 (GMT -0400)
Lima Allen County

Weather History for KAOH - October, 2013

Change the Weather History Date:

Saturday, October 19, 2013

  Actual Average (KFDY) Record (KFDY)
Temperature  
Mean Temperature 46 °F -  
Max Temperature 51 °F 56 °F 86 °F (1953)
Min Temperature 41 °F 39 °F 26 °F (1992)
Degree Days  
Heating Degree Days 20    
Moisture  
Dew Point 39 °F    
Average Humidity 78    
Maximum Humidity 89    
Minimum Humidity 61    
Precipitation  
Precipitation 0.36 in - - ()
Sea Level Pressure  
Sea Level Pressure 29.87 in    
Wind  
Wind Speed 6 mph (WSW)    
Max Wind Speed 15 mph    
Max Gust Speed 21 mph    
Visibility 7 miles    
Events Rain    
Averages and records for this station are not official NWS values.
T = Trace of Precipitation, MM = Missing Value Source: NWS Daily Summary

Daily Weather History Graph

Daily Weather History Graph

Search for Another Location

Airport or City:

Trip Planner

Search our weather history database for the weather conditions in past years. The results will help you decide how hot, cold, wet, or windy it might be!

Date:

Astronomy

Oct. 19, 2013 Rise Set
Actual Time 7:51 AM EDT 6:49 PM EDT
Civil Twilight 7:24 AM EDT 7:17 PM EDT
Nautical Twilight 6:52 AM EDT 7:49 PM EDT
Astronomical Twilight 6:20 AM EDT 8:20 PM EDT
Moon 7:16 PM EDT (10/19) 8:28 AM EDT (10/19)
Length of Visible Light 11h 53m
Length of Day
10h 57m
Waxing Gibbous, 99% of the Moon is Illuminated
Oct 19
Waxing Gibbous
Oct 26
Last Quarter
Nov 3
New
Nov 10
First Quarter
Nov 17
Full

Hourly Weather History & Observations

Time (EDT) Temp. Windchill Dew Point Humidity Pressure Visibility Wind Dir Wind Speed Gust Speed Precip Events Conditions
12:53 AM 45.0 °F 43.5 °F 39.9 °F 82% 29.95 in 7.0 mi WSW 3.5 mph - N/A   Mostly Cloudy
1:53 AM 45.0 °F - 39.9 °F 82% 29.93 in 7.0 mi Calm Calm - N/A   Clear
2:53 AM 41.0 °F - 37.9 °F 89% 29.93 in 5.0 mi Calm Calm - N/A   Clear
3:53 AM 44.1 °F 41.5 °F 39.0 °F 82% 29.93 in 7.0 mi WSW 4.6 mph - N/A   Mostly Cloudy
4:53 AM 44.1 °F 42.5 °F 39.0 °F 82% 29.90 in 7.0 mi SSW 3.5 mph - N/A   Clear
5:53 AM 44.1 °F - 39.9 °F 85% 29.87 in 7.0 mi Calm Calm - N/A   Overcast
6:53 AM 44.1 °F 42.5 °F 39.9 °F 85% 29.87 in 4.0 mi WSW 3.5 mph - 0.02 in Rain Light Rain
7:53 AM 44.1 °F 42.5 °F 39.9 °F 85% 29.86 in 6.0 mi SW 3.5 mph - 0.02 in   Overcast
8:51 AM 44.6 °F 42.2 °F 41.0 °F 87% 29.85 in 2.5 mi SW 4.6 mph - 0.04 in Rain Light Rain
8:53 AM 45.0 °F 42.6 °F 41.0 °F 86% 29.86 in 2.5 mi SW 4.6 mph - 0.04 in Rain Light Rain
9:53 AM 45.0 °F 40.6 °F 41.0 °F 86% 29.86 in 2.5 mi West 8.1 mph - 0.06 in Rain Light Rain
10:02 AM 44.6 °F 40.2 °F 41.0 °F 87% 29.85 in 3.0 mi West 8.1 mph - 0.00 in Rain Light Rain
10:10 AM 44.6 °F 39.7 °F 41.0 °F 87% 29.86 in 2.0 mi West 9.2 mph - 0.02 in Rain Rain
10:53 AM 44.1 °F 38.1 °F 39.9 °F 85% 29.88 in 2.5 mi West 11.5 mph - 0.11 in Rain Rain
11:10 AM 44.6 °F 40.2 °F 39.2 °F 81% 29.85 in 4.0 mi West 8.1 mph - 0.04 in Rain Light Rain
11:19 AM 44.6 °F 40.2 °F 39.2 °F 81% 29.85 in 7.0 mi West 8.1 mph - 0.04 in Rain Light Rain
11:53 AM 44.1 °F 39.0 °F 39.0 °F 82% 29.86 in 6.0 mi WSW 9.2 mph - 0.07 in Rain Light Rain
12:53 PM 44.1 °F 39.0 °F 39.9 °F 85% 29.85 in 10.0 mi West 9.2 mph - 0.02 in Rain Light Rain
1:49 PM 44.6 °F 38.1 °F 39.2 °F 81% 29.84 in 10.0 mi West 13.8 mph 20.7 mph 0.02 in Rain Light Rain
1:53 PM 44.1 °F 39.0 °F 39.0 °F 82% 29.85 in 10.0 mi West 9.2 mph 20.7 mph 0.02 in Rain Light Rain
2:40 PM 46.4 °F 40.1 °F 39.2 °F 76% 29.83 in 10.0 mi West 15.0 mph 19.6 mph 0.00 in   Overcast
2:53 PM 46.9 °F - 41.0 °F 80% 29.84 in 10.0 mi WSW 12.7 mph - 0.00 in   Mostly Cloudy
3:28 PM 48.2 °F - 39.2 °F 71% 29.83 in 10.0 mi West 13.8 mph 18.4 mph N/A   Overcast
3:53 PM 48.9 °F - 39.0 °F 69% 29.84 in 10.0 mi West 12.7 mph - N/A   Mostly Cloudy
4:17 PM 48.2 °F - 39.2 °F 71% 29.84 in 10.0 mi West 12.7 mph - N/A   Overcast
4:53 PM 50.0 °F - 37.0 °F 61% 29.85 in 10.0 mi WSW 15.0 mph - N/A   Mostly Cloudy
5:53 PM 48.9 °F - 37.0 °F 64% 29.86 in 10.0 mi WSW 9.2 mph - N/A   Mostly Cloudy
6:53 PM 46.9 °F - 36.0 °F 66% 29.88 in 10.0 mi SW 8.1 mph - N/A   Scattered Clouds
7:53 PM 45.0 °F 41.2 °F 35.1 °F 68% 29.89 in 10.0 mi SSW 6.9 mph - N/A   Clear
8:53 PM 44.1 °F 39.5 °F 35.1 °F 71% 29.91 in 10.0 mi SSW 8.1 mph - N/A   Clear
9:53 PM 44.1 °F 38.6 °F 34.0 °F 68% 29.92 in 10.0 mi SSW 10.4 mph - N/A   Clear
10:53 PM 43.0 °F 37.7 °F 34.0 °F 71% 29.94 in 10.0 mi SSW 9.2 mph - N/A   Clear
11:53 PM 43.0 °F 38.2 °F 34.0 °F 71% 29.94 in 10.0 mi SW 8.1 mph - N/A   Clear